Location: Home
(42.5358°N, 72.7383°W)
Time: 06:34:53
(UTC-05:00)

S-56A Canister/Altair - Pass Details

Date: 06 December 2021
Orbit: 633 x 2499 km, 38.9° (Epoch: 19 January)

Event Time Altitude Azimuth Distance (km) Brightness Sun altitude
Exits shadow 05:18:34 13° 221° (SW) 2,007 9.4 -19.2°
Maximum altitude 05:18:35 13° 221° (SW) 2,006 9.4 -19.2°
Drops below altitude 10° 05:20:36 10° 195° (SSW) 2,091 9.8 -18.8°
Sets 05:24:06 0° 164° (SSE) 2,913 10.9 -18.2°
